Time,TemperatureF,DewpointF,PressureIn,WindDirection,WindDirectionDegrees,WindSpeedMPH,WindSpeedGustMPH,Humidity,HourlyPrecipIn,Conditions,Clouds,dailyrainin,SoftwareType,DateUTC
2013-08-20 00:05:00,72.0,62.9,29.98,NNW,345,0.0,0.0,73,0.00,,,0.00,Wunderground v.1.15,2013-08-20 04:05:00,
2013-08-20 00:10:00,71.9,63.2,29.99,NNW,345,0.0,0.0,74,0.00,,,0.00,Wunderground v.1.15,2013-08-20 04:10:00,
2013-08-20 00:15:00,71.8,63.1,29.99,NNW,345,0.0,0.0,74,0.00,,,0.00,Wunderground v.1.15,2013-08-20 04:15:00,
2013-08-20 00:20:00,71.7,63.0,29.99,NW,320,0.0,0.0,74,0.00,,,0.00,Wunderground v.1.15,2013-08-20 04:20:00,
2013-08-20 00:25:00,71.5,62.8,29.99,NW,320,0.0,0.0,74,0.00,,,0.00,Wunderground v.1.15,2013-08-20 04:25:00,
2013-08-20 00:30:00,71.4,62.7,29.99,NNW,337,0.0,0.0,74,0.00,,,0.00,Wunderground v.1.15,2013-08-20 04:30:00,
2013-08-20 00:40:00,71.0,62.7,29.99,NNW,338,0.0,0.0,75,0.00,,,0.00,Wunderground v.1.15,2013-08-20 04:40:00,
2013-08-20 00:45:00,70.9,62.6,29.98,NNW,338,0.0,0.0,75,0.00,,,0.00,Wunderground v.1.15,2013-08-20 04:45:00,
2013-08-20 00:50:00,70.7,62.4,29.99,NE,53,0.0,0.0,75,0.00,,,0.00,Wunderground v.1.15,2013-08-20 04:50:00,
2013-08-20 00:55:00,70.7,62.4,29.98,NE,53,0.0,0.0,75,0.00,,,0.00,Wunderground v.1.15,2013-08-20 04:55:00,
2013-08-20 01:00:00,70.7,62.4,29.98,NE,45,0.0,0.0,75,0.00,,,0.00,Wunderground v.1.15,2013-08-20 05:00:00,
2013-08-20 01:05:00,70.9,62.6,29.99,NE,45,0.0,0.0,75,0.00,,,0.00,Wunderground v.1.15,2013-08-20 05:05:00,
2013-08-20 01:10:00,70.9,62.2,29.98,NE,45,0.0,0.0,74,0.00,,,0.00,Wunderground v.1.15,2013-08-20 05:10:00,
2013-08-20 01:15:00,70.8,62.1,29.98,NE,45,0.0,0.0,74,0.00,,,0.00,Wunderground v.1.15,2013-08-20 05:15:00,
2013-08-20 01:20:00,70.7,62.0,29.98,NE,52,0.0,0.0,74,0.00,,,0.00,Wunderground v.1.15,2013-08-20 05:20:00,
2013-08-20 01:30:00,70.7,62.4,29.98,North,360,0.0,0.0,75,0.00,,,0.00,Wunderground v.1.15,2013-08-20 05:30:00,
2013-08-20 01:40:00,70.7,62.4,29.99,NNW,331,0.0,0.0,75,0.00,,,0.00,Wunderground v.1.15,2013-08-20 05:40:00,
2013-08-20 01:45:00,70.6,62.3,29.99,NNW,331,0.0,0.0,75,0.00,,,0.00,Wunderground v.1.15,2013-08-20 05:45:00,
2013-08-20 01:50:00,70.2,62.3,29.98,NNW,331,0.0,0.0,76,0.00,,,0.00,Wunderground v.1.15,2013-08-20 05:50:00,
2013-08-20 01:55:00,69.7,62.5,29.99,NNW,331,0.0,0.0,78,0.00,,,0.00,Wunderground v.1.15,2013-08-20 05:55:00,
2013-08-20 02:00:00,69.0,62.2,29.99,NNW,331,0.0,0.0,79,0.00,,,0.00,Wunderground v.1.15,2013-08-20 06:00:00,
2013-08-20 02:05:00,68.5,62.1,29.99,NNW,331,0.0,0.0,80,0.00,,,0.00,Wunderground v.1.15,2013-08-20 06:05:00,
2013-08-20 02:10:00,68.0,61.9,29.99,NNW,331,0.0,0.0,81,0.00,,,0.00,Wunderground v.1.15,2013-08-20 06:10:00,
2013-08-20 02:15:00,67.7,62.3,29.99,NNW,331,0.0,0.0,83,0.00,,,0.00,Wunderground v.1.15,2013-08-20 06:15:00,
2013-08-20 02:20:00,67.6,62.3,29.99,NNW,331,0.0,0.0,83,0.00,,,0.00,Wunderground v.1.15,2013-08-20 06:20:00,
2013-08-20 02:25:00,67.6,62.3,29.99,NNW,331,0.0,0.0,83,0.00,,,0.00,Wunderground v.1.15,2013-08-20 06:25:00,
2013-08-20 02:30:00,67.5,62.2,29.99,NNW,331,0.0,0.0,83,0.00,,,0.00,Wunderground v.1.15,2013-08-20 06:30:00,
2013-08-20 02:40:00,67.0,62.0,29.99,NNW,331,0.0,0.0,84,0.00,,,0.00,Wunderground v.1.15,2013-08-20 06:40:00,
2013-08-20 02:50:00,66.7,62.0,29.99,NNW,331,0.0,0.0,85,0.00,,,0.00,Wunderground v.1.15,2013-08-20 06:50:00,
2013-08-20 02:55:00,66.4,61.8,29.99,NNW,331,0.0,0.0,85,0.00,,,0.00,Wunderground v.1.15,2013-08-20 06:55:00,
2013-08-20 03:00:00,66.1,61.8,29.99,NNW,331,0.0,0.0,86,0.00,,,0.00,Wunderground v.1.15,2013-08-20 07:00:00,
2013-08-20 03:05:00,65.8,61.5,29.99,NNW,331,0.0,0.0,86,0.00,,,0.00,Wunderground v.1.15,2013-08-20 07:05:00,
2013-08-20 03:10:00,66.0,62.0,29.99,NNW,331,0.0,0.0,87,0.00,,,0.00,Wunderground v.1.15,2013-08-20 07:10:00,
2013-08-20 03:15:00,66.2,62.2,30.00,NNW,331,0.0,0.0,87,0.00,,,0.00,Wunderground v.1.15,2013-08-20 07:15:00,
2013-08-20 03:25:00,66.0,61.7,30.00,NNW,331,0.0,0.0,86,0.00,,,0.00,Wunderground v.1.15,2013-08-20 07:25:00,
2013-08-20 03:30:00,66.0,62.0,30.00,NNW,331,0.0,0.0,87,0.00,,,0.00,Wunderground v.1.15,2013-08-20 07:30:00,
2013-08-20 03:35:00,65.8,61.8,30.00,NNW,331,0.0,0.0,87,0.00,,,0.00,Wunderground v.1.15,2013-08-20 07:35:00,
2013-08-20 03:40:00,65.8,62.1,30.00,NNW,331,0.0,0.0,88,0.00,,,0.00,Wunderground v.1.15,2013-08-20 07:40:00,
2013-08-20 03:45:00,65.7,61.7,30.00,NNW,331,0.0,0.0,87,0.00,,,0.00,Wunderground v.1.15,2013-08-20 07:45:00,
2013-08-20 03:55:00,65.3,61.7,30.01,NNW,331,0.0,0.0,88,0.00,,,0.00,Wunderground v.1.15,2013-08-20 07:55:00,
2013-08-20 04:00:00,65.1,61.5,30.01,NNW,331,0.0,0.0,88,0.00,,,0.00,Wunderground v.1.15,2013-08-20 08:00:00,
2013-08-20 04:10:00,64.8,61.5,30.01,NNW,331,0.0,0.0,89,0.00,,,0.00,Wunderground v.1.15,2013-08-20 08:10:00,
2013-08-20 04:15:00,64.6,61.3,30.01,NNW,331,0.0,0.0,89,0.00,,,0.00,Wunderground v.1.15,2013-08-20 08:15:00,
2013-08-20 04:20:00,64.5,61.2,30.01,NNW,331,0.0,0.0,89,0.00,,,0.00,Wunderground v.1.15,2013-08-20 08:20:00,
2013-08-20 04:25:00,64.6,61.6,30.01,NNW,331,0.0,0.0,90,0.00,,,0.00,Wunderground v.1.15,2013-08-20 08:25:00,
2013-08-20 04:35:00,64.4,61.1,30.01,NNW,331,0.0,0.0,89,0.00,,,0.00,Wunderground v.1.15,2013-08-20 08:35:00,
2013-08-20 04:40:00,64.3,61.3,30.01,NNW,331,0.0,0.0,90,0.00,,,0.00,Wunderground v.1.15,2013-08-20 08:40:00,
2013-08-20 04:45:00,64.3,61.3,30.02,NNW,331,0.0,0.0,90,0.00,,,0.00,Wunderground v.1.15,2013-08-20 08:45:00,
2013-08-20 04:50:00,64.2,61.2,30.02,NNW,331,0.0,0.0,90,0.00,,,0.00,Wunderground v.1.15,2013-08-20 08:50:00,
2013-08-20 04:55:00,64.0,61.0,30.02,NNW,331,0.0,0.0,90,0.00,,,0.00,Wunderground v.1.15,2013-08-20 08:55:00,
2013-08-20 05:00:00,63.7,60.7,30.02,NNW,331,0.0,0.0,90,0.00,,,0.00,Wunderground v.1.15,2013-08-20 09:00:00,
2013-08-20 05:10:00,63.6,61.2,30.02,NNW,331,0.0,0.0,92,0.00,,,0.00,Wunderground v.1.15,2013-08-20 09:10:00,
2013-08-20 05:15:00,63.4,60.7,30.02,NNW,331,0.0,0.0,91,0.00,,,0.00,Wunderground v.1.15,2013-08-20 09:15:00,
2013-08-20 05:20:00,63.2,60.8,30.02,NNW,331,0.0,0.0,92,0.00,,,0.00,Wunderground v.1.15,2013-08-20 09:20:00,
2013-08-20 05:25:00,63.4,61.0,30.02,NNW,331,0.0,0.0,92,0.00,,,0.00,Wunderground v.1.15,2013-08-20 09:25:00,
2013-08-20 05:30:00,63.2,60.8,30.02,NNW,331,0.0,0.0,92,0.00,,,0.00,Wunderground v.1.15,2013-08-20 09:30:00,
2013-08-20 05:35:00,63.2,60.8,30.03,NNW,331,0.0,0.0,92,0.00,,,0.00,Wunderground v.1.15,2013-08-20 09:35:00,
2013-08-20 05:40:00,63.1,60.7,30.03,NNW,331,0.0,0.0,92,0.00,,,0.00,Wunderground v.1.15,2013-08-20 09:40:00,
2013-08-20 05:50:00,63.2,61.1,30.03,NNW,331,0.0,0.0,93,0.00,,,0.00,Wunderground v.1.15,2013-08-20 09:50:00,
2013-08-20 05:55:00,63.2,61.1,30.04,NNW,331,0.0,0.0,93,0.00,,,0.00,Wunderground v.1.15,2013-08-20 09:55:00,
2013-08-20 06:00:00,63.2,61.1,30.04,NNW,331,0.0,0.0,93,0.00,,,0.00,Wunderground v.1.15,2013-08-20 10:00:00,
2013-08-20 06:05:00,63.2,61.1,30.04,NNW,331,0.0,0.0,93,0.00,,,0.00,Wunderground v.1.15,2013-08-20 10:05:00,
2013-08-20 06:10:00,63.2,61.1,30.04,NNW,331,0.0,0.0,93,0.00,,,0.00,Wunderground v.1.15,2013-08-20 10:10:00,
2013-08-20 06:15:00,63.2,60.8,30.04,NNW,331,0.0,0.0,92,0.00,,,0.00,Wunderground v.1.15,2013-08-20 10:15:00,
2013-08-20 06:25:00,63.2,61.1,30.04,NNW,331,0.0,0.0,93,0.00,,,0.00,Wunderground v.1.15,2013-08-20 10:25:00,
2013-08-20 06:30:00,63.4,61.3,30.05,NNW,331,0.0,0.0,93,0.00,,,0.00,Wunderground v.1.15,2013-08-20 10:30:00,
2013-08-20 06:40:00,63.7,61.3,30.05,NNW,331,0.0,0.0,92,0.00,,,0.00,Wunderground v.1.15,2013-08-20 10:40:00,
2013-08-20 06:45:00,63.8,61.4,30.05,NNW,331,0.0,0.0,92,0.00,,,0.00,Wunderground v.1.15,2013-08-20 10:45:00,
2013-08-20 06:50:00,64.1,61.4,30.05,NNW,331,0.0,1.0,91,0.00,,,0.00,Wunderground v.1.15,2013-08-20 10:50:00,
2013-08-20 06:55:00,64.5,61.5,30.06,NNW,331,0.0,1.0,90,0.00,,,0.00,Wunderground v.1.15,2013-08-20 10:55:00,
2013-08-20 07:05:00,64.6,61.3,30.06,NNW,331,0.0,1.0,89,0.00,,,0.00,Wunderground v.1.15,2013-08-20 11:05:00,
2013-08-20 07:10:00,64.8,61.5,30.06,NW,325,0.0,0.0,89,0.00,,,0.00,Wunderground v.1.15,2013-08-20 11:10:00,
2013-08-20 07:15:00,65.1,61.5,30.06,NW,325,0.0,0.0,88,0.00,,,0.00,Wunderground v.1.15,2013-08-20 11:15:00,
2013-08-20 07:20:00,65.6,61.9,30.06,NW,325,0.0,0.0,88,0.00,,,0.00,Wunderground v.1.15,2013-08-20 11:20:00,
2013-08-20 07:25:00,65.9,61.9,30.06,NW,325,0.0,0.0,87,0.00,,,0.00,Wunderground v.1.15,2013-08-20 11:25:00,
2013-08-20 07:30:00,66.3,62.0,30.06,NW,325,0.0,0.0,86,0.00,,,0.00,Wunderground v.1.15,2013-08-20 11:30:00,
2013-08-20 07:35:00,66.7,62.4,30.06,NW,325,0.0,0.0,86,0.00,,,0.00,Wunderground v.1.15,2013-08-20 11:35:00,
2013-08-20 07:40:00,67.2,62.5,30.06,NW,325,0.0,1.0,85,0.00,,,0.00,Wunderground v.1.15,2013-08-20 11:40:00,
2013-08-20 07:45:00,67.6,62.6,30.07,NW,325,0.0,1.0,84,0.00,,,0.00,Wunderground v.1.15,2013-08-20 11:45:00,
2013-08-20 07:50:00,68.2,62.8,30.06,NW,325,0.0,0.0,83,0.00,,,0.00,Wunderground v.1.15,2013-08-20 11:50:00,
2013-08-20 08:00:00,69.1,63.0,30.07,NW,325,0.0,0.0,81,0.00,,,0.00,Wunderground v.1.15,2013-08-20 12:00:00,
2013-08-20 08:05:00,69.5,63.1,30.07,NW,315,0.0,0.0,80,0.00,,,0.00,Wunderground v.1.15,2013-08-20 12:05:00,
2013-08-20 08:10:00,70.0,63.2,30.07,NW,315,0.0,0.0,79,0.00,,,0.00,Wunderground v.1.15,2013-08-20 12:10:00,
2013-08-20 08:20:00,71.0,63.4,30.07,WNW,301,0.0,0.0,77,0.00,,,0.00,Wunderground v.1.15,2013-08-20 12:20:00,
2013-08-20 08:25:00,71.3,63.7,30.07,WNW,301,0.0,0.0,77,0.00,,,0.00,Wunderground v.1.15,2013-08-20 12:25:00,
2013-08-20 08:30:00,71.5,63.9,30.07,WNW,297,0.0,0.0,77,0.00,,,0.00,Wunderground v.1.15,2013-08-20 12:30:00,
2013-08-20 08:35:00,71.9,64.3,30.07,WNW,297,0.0,1.0,77,0.00,,,0.00,Wunderground v.1.15,2013-08-20 12:35:00,
2013-08-20 08:40:00,72.2,64.2,30.07,WNW,286,1.0,1.0,76,0.00,,,0.00,Wunderground v.1.15,2013-08-20 12:40:00,
2013-08-20 08:45:00,72.7,64.3,30.07,WNW,293,1.0,1.0,75,0.00,,,0.00,Wunderground v.1.15,2013-08-20 12:45:00,
2013-08-20 08:55:00,73.8,64.6,30.07,ENE,63,0.0,0.0,73,0.00,,,0.00,Wunderground v.1.15,2013-08-20 12:55:00,
2013-08-20 09:00:00,74.3,64.7,30.08,NE,39,0.0,0.0,72,0.00,,,0.00,Wunderground v.1.15,2013-08-20 13:00:00,
2013-08-20 09:05:00,74.7,65.1,30.08,NE,39,0.0,0.0,72,0.00,,,0.00,Wunderground v.1.15,2013-08-20 13:05:00,
2013-08-20 09:10:00,75.2,65.1,30.08,NE,35,0.0,1.0,71,0.00,,,0.00,Wunderground v.1.15,2013-08-20 13:10:00,
2013-08-20 09:15:00,75.6,65.1,30.08,North,8,0.0,1.0,70,0.00,,,0.00,Wunderground v.1.15,2013-08-20 13:15:00,
2013-08-20 09:20:00,75.9,65.0,30.08,North,7,0.0,0.0,69,0.00,,,0.00,Wunderground v.1.15,2013-08-20 13:20:00,
2013-08-20 09:30:00,76.3,65.0,30.08,North,355,1.0,1.0,68,0.00,,,0.00,Wunderground v.1.15,2013-08-20 13:30:00,
2013-08-20 09:40:00,76.9,64.2,30.08,NE,43,0.0,1.0,65,0.00,,,0.00,Wunderground v.1.15,2013-08-20 13:40:00,
2013-08-20 09:45:00,77.4,64.7,30.08,North,8,0.0,1.0,65,0.00,,,0.00,Wunderground v.1.15,2013-08-20 13:45:00,
2013-08-20 09:50:00,77.8,64.2,30.08,NNW,345,0.0,0.0,63,0.00,,,0.00,Wunderground v.1.15,2013-08-20 13:50:00,
2013-08-20 09:55:00,77.9,64.3,30.08,NNW,336,1.0,1.0,63,0.00,,,0.00,Wunderground v.1.15,2013-08-20 13:55:00,
2013-08-20 10:05:00,78.0,65.3,30.08,North,349,1.0,2.0,65,0.00,,,0.00,Wunderground v.1.15,2013-08-20 14:05:00,
2013-08-20 10:10:00,78.3,65.1,30.08,North,359,1.0,1.0,64,0.00,,,0.00,Wunderground v.1.15,2013-08-20 14:10:00,
2013-08-20 10:15:00,78.7,65.5,30.08,ENE,66,0.0,1.0,64,0.00,,,0.00,Wunderground v.1.15,2013-08-20 14:15:00,
2013-08-20 10:20:00,79.3,65.6,30.07,ENE,66,0.0,0.0,63,0.00,,,0.00,Wunderground v.1.15,2013-08-20 14:20:00,
2013-08-20 10:25:00,80.0,66.3,30.07,ENE,66,0.0,2.0,63,0.00,,,0.00,Wunderground v.1.15,2013-08-20 14:25:00,
2013-08-20 10:30:00,80.4,66.2,30.07,NNW,338,0.0,1.0,62,0.00,,,0.00,Wunderground v.1.15,2013-08-20 14:30:00,
2013-08-20 10:35:00,80.3,65.1,30.08,North,351,1.0,2.0,60,0.00,,,0.00,Wunderground v.1.15,2013-08-20 14:35:00,
2013-08-20 10:45:00,80.5,65.8,30.08,ENE,58,1.0,3.0,61,0.00,,,0.00,Wunderground v.1.15,2013-08-20 14:45:00,
2013-08-20 10:50:00,80.7,66.0,30.08,NE,44,1.0,1.0,61,0.00,,,0.00,Wunderground v.1.15,2013-08-20 14:50:00,
2013-08-20 10:55:00,81.0,64.8,30.08,NNW,327,1.0,1.0,58,0.00,,,0.00,Wunderground v.1.15,2013-08-20 14:55:00,
2013-08-20 11:00:00,80.7,65.5,30.08,NNW,327,1.0,1.0,60,0.00,,,0.00,Wunderground v.1.15,2013-08-20 15:00:00,
2013-08-20 11:10:00,81.1,64.4,30.08,NNW,335,1.0,2.0,57,0.00,,,0.00,Wunderground v.1.15,2013-08-20 15:10:00,
2013-08-20 11:20:00,81.9,64.7,30.08,WNW,292,1.0,1.0,56,0.00,,,0.00,Wunderground v.1.15,2013-08-20 15:20:00,
2013-08-20 11:25:00,82.4,64.1,30.08,NNW,343,1.0,1.0,54,0.00,,,0.00,Wunderground v.1.15,2013-08-20 15:25:00,
2013-08-20 11:30:00,82.7,64.4,30.08,NNW,332,1.0,1.0,54,0.00,,,0.00,Wunderground v.1.15,2013-08-20 15:30:00,
2013-08-20 11:35:00,83.3,66.0,30.08,ENE,63,0.0,1.0,56,0.00,,,0.00,Wunderground v.1.15,2013-08-20 15:35:00,
2013-08-20 11:40:00,83.9,64.9,30.08,North,349,1.0,3.0,53,0.00,,,0.00,Wunderground v.1.15,2013-08-20 15:40:00,
2013-08-20 11:45:00,83.6,65.2,30.07,WSW,251,1.0,3.0,54,0.00,,,0.00,Wunderground v.1.15,2013-08-20 15:45:00,
2013-08-20 11:55:00,84.3,64.2,30.07,North,4,1.0,1.0,51,0.00,,,0.00,Wunderground v.1.15,2013-08-20 15:55:00,
2013-08-20 12:00:00,84.3,63.6,30.07,West,278,1.0,5.0,50,0.00,,,0.00,Wunderground v.1.15,2013-08-20 16:00:00,
2013-08-20 12:10:00,83.9,63.3,30.07,NW,320,1.0,1.0,50,0.00,,,0.00,Wunderground v.1.15,2013-08-20 16:10:00,
2013-08-20 12:15:00,84.2,64.1,30.07,WNW,298,1.0,3.0,51,0.00,,,0.00,Wunderground v.1.15,2013-08-20 16:15:00,
2013-08-20 12:20:00,84.3,63.6,30.07,West,264,2.0,2.0,50,0.00,,,0.00,Wunderground v.1.15,2013-08-20 16:20:00,
2013-08-20 12:25:00,84.3,64.2,30.06,WNW,288,1.0,2.0,51,0.00,,,0.00,Wunderground v.1.15,2013-08-20 16:25:00,
2013-08-20 12:35:00,84.0,64.5,30.07,WNW,297,2.0,2.0,52,0.00,,,0.00,Wunderground v.1.15,2013-08-20 16:35:00,
2013-08-20 12:40:00,83.8,63.7,30.07,NW,310,1.0,1.0,51,0.00,,,0.00,Wunderground v.1.15,2013-08-20 16:40:00,
2013-08-20 12:45:00,83.7,65.3,30.07,West,280,1.0,2.0,54,0.00,,,0.00,Wunderground v.1.15,2013-08-20 16:45:00,
2013-08-20 12:50:00,84.2,66.3,30.07,WNW,295,1.0,3.0,55,0.00,,,0.00,Wunderground v.1.15,2013-08-20 16:50:00,
2013-08-20 12:55:00,84.4,67.0,30.07,WNW,288,2.0,3.0,56,0.00,,,0.00,Wunderground v.1.15,2013-08-20 16:55:00,
2013-08-20 13:00:00,84.5,67.1,30.07,West,280,2.0,5.0,56,0.00,,,0.00,Wunderground v.1.15,2013-08-20 17:00:00,
2013-08-20 13:05:00,84.0,66.6,30.06,SSW,192,3.0,5.0,56,0.00,,,0.00,Wunderground v.1.15,2013-08-20 17:05:00,
2013-08-20 13:15:00,84.0,66.6,30.06,WSW,248,3.0,7.0,56,0.00,,,0.00,Wunderground v.1.15,2013-08-20 17:15:00,
2013-08-20 13:20:00,84.2,66.8,30.06,SW,222,3.0,4.0,56,0.00,,,0.00,Wunderground v.1.15,2013-08-20 17:20:00,
2013-08-20 13:25:00,84.4,66.5,30.07,WSW,239,3.0,7.0,55,0.00,,,0.00,Wunderground v.1.15,2013-08-20 17:25:00,
2013-08-20 13:30:00,84.2,65.8,30.06,WNW,297,4.0,4.0,54,0.00,,,0.00,Wunderground v.1.15,2013-08-20 17:30:00,
2013-08-20 13:40:00,84.6,66.7,30.06,WNW,289,4.0,4.0,55,0.00,,,0.00,Wunderground v.1.15,2013-08-20 17:40:00,
2013-08-20 13:50:00,84.4,65.9,30.07,WSW,247,4.0,6.0,54,0.00,,,0.00,Wunderground v.1.15,2013-08-20 17:50:00,
2013-08-20 13:55:00,84.2,66.3,30.07,West,267,3.0,6.0,55,0.00,,,0.00,Wunderground v.1.15,2013-08-20 17:55:00,
2013-08-20 14:00:00,84.5,66.0,30.07,WSW,256,3.0,6.0,54,0.00,,,0.00,Wunderground v.1.15,2013-08-20 18:00:00,
2013-08-20 14:05:00,84.1,65.7,30.07,WSW,247,4.0,6.0,54,0.00,,,0.00,Wunderground v.1.15,2013-08-20 18:05:00,
2013-08-20 14:10:00,84.0,65.6,30.07,WSW,241,4.0,5.0,54,0.00,,,0.00,Wunderground v.1.15,2013-08-20 18:10:00,
2013-08-20 14:15:00,83.6,65.7,30.07,SW,234,4.0,5.0,55,0.00,,,0.00,Wunderground v.1.15,2013-08-20 18:15:00,
2013-08-20 14:25:00,83.7,65.8,30.07,West,273,3.0,5.0,55,0.00,,,0.00,Wunderground v.1.15,2013-08-20 18:25:00,
2013-08-20 14:30:00,83.5,65.6,30.07,WSW,252,4.0,6.0,55,0.00,,,0.00,Wunderground v.1.15,2013-08-20 18:30:00,
2013-08-20 14:35:00,83.2,66.4,30.07,SSW,199,4.0,6.0,57,0.00,,,0.00,Wunderground v.1.15,2013-08-20 18:35:00,
2013-08-20 14:40:00,83.1,66.3,30.06,WSW,239,4.0,4.0,57,0.00,,,0.00,Wunderground v.1.15,2013-08-20 18:40:00,
2013-08-20 14:45:00,83.1,66.3,30.06,WSW,251,3.0,4.0,57,0.00,,,0.00,Wunderground v.1.15,2013-08-20 18:45:00,
2013-08-20 14:50:00,83.0,65.2,30.06,WSW,248,3.0,10.0,55,0.00,,,0.00,Wunderground v.1.15,2013-08-20 18:50:00,
2013-08-20 15:00:00,81.8,63.5,30.07,West,260,6.0,7.0,54,0.00,,,0.00,Wunderground v.1.15,2013-08-20 19:00:00,
2013-08-20 15:10:00,81.9,63.6,30.06,WSW,246,4.0,4.0,54,0.00,,,0.00,Wunderground v.1.15,2013-08-20 19:10:00,
2013-08-20 15:15:00,81.9,64.1,30.06,WSW,245,4.0,4.0,55,0.00,,,0.00,Wunderground v.1.15,2013-08-20 19:15:00,
2013-08-20 15:20:00,82.1,63.8,30.06,WSW,252,3.0,3.0,54,0.00,,,0.00,Wunderground v.1.15,2013-08-20 19:20:00,
2013-08-20 15:25:00,82.0,64.2,30.06,West,266,3.0,5.0,55,0.00,,,0.00,Wunderground v.1.15,2013-08-20 19:25:00,
2013-08-20 15:30:00,82.4,64.1,30.06,WNW,282,3.0,4.0,54,0.00,,,0.00,Wunderground v.1.15,2013-08-20 19:30:00,
2013-08-20 15:35:00,82.3,64.0,30.06,WSW,253,4.0,5.0,54,0.00,,,0.00,Wunderground v.1.15,2013-08-20 19:35:00,
2013-08-20 15:40:00,82.1,63.3,30.06,WNW,286,5.0,5.0,53,0.00,,,0.00,Wunderground v.1.15,2013-08-20 19:40:00,
2013-08-20 15:45:00,82.0,63.7,30.06,SW,227,4.0,5.0,54,0.00,,,0.00,Wunderground v.1.15,2013-08-20 19:45:00,
2013-08-20 15:50:00,81.7,62.9,30.06,WSW,245,4.0,5.0,53,0.00,,,0.00,Wunderground v.1.15,2013-08-20 19:50:00,
2013-08-20 15:55:00,81.7,62.9,30.06,NW,310,4.0,5.0,53,0.00,,,0.00,Wunderground v.1.15,2013-08-20 19:55:00,
2013-08-20 16:00:00,81.7,62.9,30.06,West,261,3.0,3.0,53,0.00,,,0.00,Wunderground v.1.15,2013-08-20 20:00:00,
2013-08-20 16:10:00,81.4,63.2,30.06,WSW,255,3.0,10.0,54,0.00,,,0.00,Wunderground v.1.15,2013-08-20 20:10:00,
2013-08-20 16:20:00,81.1,63.4,30.06,West,259,4.0,7.0,55,0.00,,,0.00,Wunderground v.1.15,2013-08-20 20:20:00,
2013-08-20 16:25:00,81.2,63.5,30.06,WNW,288,3.0,7.0,55,0.00,,,0.00,Wunderground v.1.15,2013-08-20 20:25:00,
2013-08-20 16:30:00,81.7,63.4,30.06,NW,310,3.0,3.0,54,0.00,,,0.00,Wunderground v.1.15,2013-08-20 20:30:00,
2013-08-20 16:35:00,81.6,63.3,30.06,West,272,3.0,3.0,54,0.00,,,0.00,Wunderground v.1.15,2013-08-20 20:35:00,
2013-08-20 16:40:00,81.3,63.6,30.06,WSW,247,3.0,3.0,55,0.00,,,0.00,Wunderground v.1.15,2013-08-20 20:40:00,
2013-08-20 16:45:00,81.1,62.9,30.06,WSW,254,4.0,5.0,54,0.00,,,0.00,Wunderground v.1.15,2013-08-20 20:45:00,
2013-08-20 16:55:00,81.0,63.3,30.06,West,262,3.0,4.0,55,0.00,,,0.00,Wunderground v.1.15,2013-08-20 20:55:00,
2013-08-20 17:00:00,81.0,63.3,30.06,WNW,293,3.0,3.0,55,0.00,,,0.00,Wunderground v.1.15,2013-08-20 21:00:00,
2013-08-20 17:05:00,80.8,63.1,30.06,WSW,249,3.0,6.0,55,0.00,,,0.00,Wunderground v.1.15,2013-08-20 21:05:00,
2013-08-20 17:10:00,80.6,63.5,30.06,WSW,237,3.0,3.0,56,0.00,,,0.00,Wunderground v.1.15,2013-08-20 21:10:00,
2013-08-20 17:20:00,80.4,63.3,30.06,WSW,256,3.0,3.0,56,0.00,,,0.00,Wunderground v.1.15,2013-08-20 21:20:00,
2013-08-20 17:25:00,80.4,62.8,30.06,West,278,3.0,4.0,55,0.00,,,0.00,Wunderground v.1.15,2013-08-20 21:25:00,
2013-08-20 17:30:00,80.2,63.1,30.06,SW,234,3.0,5.0,56,0.00,,,0.00,Wunderground v.1.15,2013-08-20 21:30:00,
2013-08-20 17:40:00,80.0,62.9,30.07,West,266,2.0,2.0,56,0.00,,,0.00,Wunderground v.1.15,2013-08-20 21:40:00,
2013-08-20 17:45:00,79.9,63.3,30.06,WSW,249,2.0,2.0,57,0.00,,,0.00,Wunderground v.1.15,2013-08-20 21:45:00,
2013-08-20 17:50:00,79.7,62.6,30.07,WSW,250,2.0,2.0,56,0.00,,,0.00,Wunderground v.1.15,2013-08-20 21:50:00,
2013-08-20 17:55:00,79.0,62.0,30.07,WNW,288,3.0,5.0,56,0.00,,,0.00,Wunderground v.1.15,2013-08-20 21:55:00,
2013-08-20 18:05:00,78.1,62.1,30.07,WSW,257,3.0,4.0,58,0.00,,,0.00,Wunderground v.1.15,2013-08-20 22:05:00,
2013-08-20 18:10:00,77.8,61.8,30.07,SW,215,4.0,7.0,58,0.00,,,0.00,Wunderground v.1.15,2013-08-20 22:10:00,
2013-08-20 18:15:00,77.3,61.9,30.07,WSW,238,4.0,7.0,59,0.00,,,0.00,Wunderground v.1.15,2013-08-20 22:15:00,
2013-08-20 18:20:00,77.2,62.2,30.07,SW,215,3.0,3.0,60,0.00,,,0.00,Wunderground v.1.15,2013-08-20 22:20:00,
2013-08-20 18:25:00,76.7,62.2,30.07,WSW,247,3.0,4.0,61,0.00,,,0.00,Wunderground v.1.15,2013-08-20 22:25:00,
2013-08-20 18:30:00,76.5,62.5,30.07,SW,234,3.0,3.0,62,0.00,,,0.00,Wunderground v.1.15,2013-08-20 22:30:00,
2013-08-20 18:40:00,76.1,63.0,30.07,West,261,3.0,3.0,64,0.00,,,0.00,Wunderground v.1.15,2013-08-20 22:40:00,
2013-08-20 18:45:00,75.8,62.8,30.07,SW,222,3.0,3.0,64,0.00,,,0.00,Wunderground v.1.15,2013-08-20 22:45:00,
2013-08-20 18:50:00,75.5,62.9,30.07,WSW,242,3.0,3.0,65,0.00,,,0.00,Wunderground v.1.15,2013-08-20 22:50:00,
2013-08-20 19:00:00,74.9,62.8,30.08,SW,224,2.0,2.0,66,0.00,,,0.00,Wunderground v.1.15,2013-08-20 23:00:00,
2013-08-20 19:05:00,74.7,62.6,30.08,WSW,251,1.0,2.0,66,0.00,,,0.00,Wunderground v.1.15,2013-08-20 23:05:00,
2013-08-20 19:10:00,74.4,62.3,30.08,West,262,2.0,5.0,66,0.00,,,0.00,Wunderground v.1.15,2013-08-20 23:10:00,
2013-08-20 19:20:00,73.9,62.7,30.08,WSW,254,2.0,2.0,68,0.00,,,0.00,Wunderground v.1.15,2013-08-20 23:20:00,
2013-08-20 19:25:00,73.7,62.5,30.08,WSW,242,2.0,2.0,68,0.00,,,0.00,Wunderground v.1.15,2013-08-20 23:25:00,
2013-08-20 19:30:00,73.5,62.7,30.09,WSW,242,1.0,1.0,69,0.00,,,0.00,Wunderground v.1.15,2013-08-20 23:30:00,
2013-08-20 19:35:00,73.2,62.4,30.09,WSW,242,0.0,1.0,69,0.00,,,0.00,Wunderground v.1.15,2013-08-20 23:35:00,
2013-08-20 19:40:00,72.9,62.1,30.09,WSW,247,1.0,3.0,69,0.00,,,0.00,Wunderground v.1.15,2013-08-20 23:40:00,
2013-08-20 19:45:00,72.7,62.3,30.09,WSW,250,1.0,3.0,70,0.00,,,0.00,Wunderground v.1.15,2013-08-20 23:45:00,
2013-08-20 19:55:00,72.4,62.1,30.09,West,263,2.0,2.0,70,0.00,,,0.00,Wunderground v.1.15,2013-08-20 23:55:00,
2013-08-20 20:00:00,72.1,62.2,30.09,WSW,243,2.0,3.0,71,0.00,,,0.00,Wunderground v.1.15,2013-08-21 00:00:00,
2013-08-20 20:05:00,71.7,61.8,30.09,WSW,245,2.0,3.0,71,0.00,,,0.00,Wunderground v.1.15,2013-08-21 00:05:00,
2013-08-20 20:10:00,71.6,62.1,30.09,WSW,243,1.0,1.0,72,0.00,,,0.00,Wunderground v.1.15,2013-08-21 00:10:00,
2013-08-20 20:15:00,71.6,62.1,30.09,WSW,243,1.0,1.0,72,0.00,,,0.00,Wunderground v.1.15,2013-08-21 00:15:00,
2013-08-20 20:20:00,71.5,62.0,30.09,WSW,243,0.0,1.0,72,0.00,,,0.00,Wunderground v.1.15,2013-08-21 00:20:00,
2013-08-20 20:30:00,71.0,61.9,30.09,WSW,243,1.0,2.0,73,0.00,,,0.00,Wunderground v.1.15,2013-08-21 00:30:00,
2013-08-20 20:40:00,70.7,62.0,30.10,WSW,243,1.0,1.0,74,0.00,,,0.00,Wunderground v.1.15,2013-08-21 00:40:00,
2013-08-20 20:45:00,70.7,62.4,30.10,WSW,243,1.0,1.0,75,0.00,,,0.00,Wunderground v.1.15,2013-08-21 00:45:00,
2013-08-20 20:50:00,70.6,62.3,30.10,SW,232,1.0,1.0,75,0.00,,,0.00,Wunderground v.1.15,2013-08-21 00:50:00,
2013-08-20 20:55:00,70.5,62.2,30.10,SW,232,1.0,1.0,75,0.00,,,0.00,Wunderground v.1.15,2013-08-21 00:55:00,
2013-08-20 21:00:00,70.4,62.5,30.10,SW,232,1.0,1.0,76,0.00,,,0.00,Wunderground v.1.15,2013-08-21 01:00:00,
2013-08-20 21:05:00,70.2,62.3,30.10,SW,232,1.0,1.0,76,0.00,,,0.00,Wunderground v.1.15,2013-08-21 01:05:00,
2013-08-20 21:10:00,70.2,62.3,30.10,SW,232,0.0,0.0,76,0.00,,,0.00,Wunderground v.1.15,2013-08-21 01:10:00,
2013-08-20 21:15:00,70.1,62.6,30.10,SW,232,0.0,0.0,77,0.00,,,0.00,Wunderground v.1.15,2013-08-21 01:15:00,
2013-08-20 21:20:00,70.1,62.6,30.10,SW,232,0.0,1.0,77,0.00,,,0.00,Wunderground v.1.15,2013-08-21 01:20:00,
2013-08-20 21:25:00,69.9,62.4,30.10,SW,232,0.0,1.0,77,0.00,,,0.00,Wunderground v.1.15,2013-08-21 01:25:00,
2013-08-20 21:30:00,69.9,62.7,30.11,SW,232,0.0,0.0,78,0.00,,,0.00,Wunderground v.1.15,2013-08-21 01:30:00,
2013-08-20 21:35:00,69.8,62.6,30.11,SW,233,0.0,0.0,78,0.00,,,0.00,Wunderground v.1.15,2013-08-21 01:35:00,
2013-08-20 21:45:00,69.8,62.6,30.11,SW,233,0.0,2.0,78,0.00,,,0.00,Wunderground v.1.15,2013-08-21 01:45:00,
2013-08-20 21:50:00,69.6,62.8,30.11,SW,233,0.0,0.0,79,0.00,,,0.00,Wunderground v.1.15,2013-08-21 01:50:00,
2013-08-20 21:55:00,69.4,62.6,30.10,SW,233,0.0,0.0,79,0.00,,,0.00,Wunderground v.1.15,2013-08-21 01:55:00,
2013-08-20 22:00:00,69.4,63.0,30.10,SW,233,0.0,0.0,80,0.00,,,0.00,Wunderground v.1.15,2013-08-21 02:00:00,
2013-08-20 22:10:00,69.2,63.1,30.11,SW,233,0.0,0.0,81,0.00,,,0.00,Wunderground v.1.15,2013-08-21 02:10:00,
2013-08-20 22:15:00,69.1,63.4,30.11,SW,233,0.0,0.0,82,0.00,,,0.00,Wunderground v.1.15,2013-08-21 02:15:00,
2013-08-20 22:25:00,69.0,63.3,30.11,SW,233,0.0,1.0,82,0.00,,,0.00,Wunderground v.1.15,2013-08-21 02:25:00,
2013-08-20 22:30:00,68.8,63.4,30.10,SW,233,0.0,0.0,83,0.00,,,0.00,Wunderground v.1.15,2013-08-21 02:30:00,
2013-08-20 22:35:00,68.8,63.4,30.11,SW,233,0.0,0.0,83,0.00,,,0.00,Wunderground v.1.15,2013-08-21 02:35:00,
2013-08-20 22:40:00,68.7,63.7,30.10,SW,233,0.0,0.0,84,0.00,,,0.00,Wunderground v.1.15,2013-08-21 02:40:00,
2013-08-20 22:45:00,68.4,63.4,30.10,SW,233,0.0,0.0,84,0.00,,,0.00,Wunderground v.1.15,2013-08-21 02:45:00,
2013-08-20 22:50:00,68.3,63.6,30.10,SW,233,0.0,0.0,85,0.00,,,0.00,Wunderground v.1.15,2013-08-21 02:50:00,
2013-08-20 23:00:00,68.3,63.6,30.10,SW,233,0.0,0.0,85,0.00,,,0.00,Wunderground v.1.15,2013-08-21 03:00:00,
2013-08-20 23:10:00,68.1,63.8,30.10,SW,233,0.0,0.0,86,0.00,,,0.00,Wunderground v.1.15,2013-08-21 03:10:00,
2013-08-20 23:15:00,68.0,63.7,30.10,SW,233,0.0,0.0,86,0.00,,,0.00,Wunderground v.1.15,2013-08-21 03:15:00,
2013-08-20 23:20:00,67.7,63.7,30.11,SW,233,0.0,0.0,87,0.00,,,0.00,Wunderground v.1.15,2013-08-21 03:20:00,
2013-08-20 23:25:00,67.6,63.6,30.11,SW,233,0.0,0.0,87,0.00,,,0.00,Wunderground v.1.15,2013-08-21 03:25:00,
2013-08-20 23:35:00,67.7,63.7,30.11,SW,233,0.0,0.0,87,0.00,,,0.00,Wunderground v.1.15,2013-08-21 03:35:00,
2013-08-20 23:40:00,67.6,63.6,30.11,SW,233,0.0,0.0,87,0.00,,,0.00,Wunderground v.1.15,2013-08-21 03:40:00,
2013-08-20 23:45:00,67.5,63.8,30.11,SW,233,0.0,0.0,88,0.00,,,0.00,Wunderground v.1.15,2013-08-21 03:45:00,
2013-08-20 23:50:00,67.5,63.8,30.11,SW,233,0.0,0.0,88,0.00,,,0.00,Wunderground v.1.15,2013-08-21 03:50:00,
2013-08-20 23:55:00,67.4,63.7,30.11,SW,233,0.0,0.0,88,0.00,,,0.00,Wunderground v.1.15,2013-08-21 03:55:00,